Flag for Japan Weather past 2 weeks in Utsunomiya, Japan

Now
78 °F

Overcast.


Feels Like: 80 °F
Forecast: 65 / 80 °F
Wind: 6 mph from Northeast

Location: Mito

Current Time: Sep 3, 2015 at 10:00:38 AM

Latest Report: Sep 3, 2015 at 9:00 AM


Visibility: 9 mi

Pressure: 29.95 "Hg

Humidity: 71%

Dew point: 68 °F

Location of UtsunomiyaLocation

Historic Weather in Utsunomiya — Graph

°F

Utsunomiya temperature yesterday

Maximum temperature yesterday: 88 °F (at 4:00 PM)
Minimum temperature yesterday: 73 °F (at 12:00 AM)
Average temperature yesterday: 80 °F

Past Weeks' High & Low Weather Summary

 TemperatureHumidityPressure
High92 °F (Aug 22, 3:00 PM)98% (Aug 21, 2:00 AM)30.02 "Hg (Aug 21, 2:00 AM)
Low67 °F (Aug 29, 3:00 AM)53% (Aug 19, 10:00 AM)29.50 "Hg (Aug 22, 3:00 PM)
Average74 °F83%29.84 "Hg
* Reported Aug 19 8:00 AM — Sep 3 8:00 AM, Utsunomiya, Weather by CustomWeather, © 2015

Note: Actual official high and low records may vary slightly from our data, if they occured in-between our weather recording intervals... More about our weather records

Advertising

Utsunomiya weather history for previous 24 hours

 ConditionsComfort  
Time TempWeatherWind HumidityBarometerVisibility
8:00 AM
Thu, Sep 3
76 °FMild.6 mph73%29.94 "HgN/A
7:00 AM74 °FMild.3 mph81%29.94 "HgN/A
5:00 AM73 °FMild.6 mph80%29.93 "HgN/A
4:00 AM74 °FMild.3 mph78%29.91 "HgN/A
3:00 AM74 °FSprinkles. Overcast.5 mph75%29.90 "Hg12 mi
2:00 AM75 °FMild.6 mph75%29.89 "HgN/A
1:00 AM75 °FMild.5 mph77%29.89 "HgN/A
12:00 AM75 °FMild.3 mph78%29.90 "HgN/A
11:00 PM
Wed, Sep 2
76 °FMild.5 mph76%29.88 "HgN/A
10:00 PM76 °FMild.2 mph72%29.87 "HgN/A
9:00 PM78 °FOvercast.2 mph68%29.87 "Hg12 mi
8:00 PM80 °FWarm.5 mph69%29.84 "HgN/A
7:00 PM83 °FWarm.6 mph78%29.81 "HgN/A
6:00 PM85 °FWarm.5 mph76%29.80 "HgN/A
5:00 PM86 °FWarm.6 mph73%29.79 "HgN/A
4:00 PM88 °FHot.7 mph69%29.77 "HgN/A
3:00 PM88 °FPartly sunny.8 mph68%29.76 "Hg12 mi
2:00 PM87 °FWarm.6 mph69%29.77 "HgN/A
11:00 AM82 °FWarm.12 mph79%29.81 "HgN/A
10:00 AM80 °FWarm.8 mph85%29.82 "HgN/A
Weather by CustomWeather, © 2015

See weather overviewHow to use our weather pages